HIMAWARI-9

Last updated on July 6, 2021, 3:22 p.m. UTC

1 41836U 16064A   21186.94102521 -.00000266  00000-0  00000-0 0  9996
2 41836   0.0208 314.5739 0001049 166.4975 282.5953  1.00271233 17065
UTC
Height (km)
Latitude
Longitude
Inclination
Orbital Period
UTC large
Height (km)
Speed (km/s)
/
Latitude / Longitude
Inclination (degrees)
Orbital Period (minutes)
Azimuth
Elevation
Range (km)
Doppler Factor
iOS Compass Heading
iOS Angle

Next 30 passes for location: Hong Kong

Rise time Rise Azimuth (degrees) Set time Set Azimuth (degrees) Duration Max altitude (degrees)

No matching passes for this satellites